User: anonymous   Login
Location: Newark
(25.6108°S, 54.5803°W)
Time: 14:13:53
(UTC+00:00)
Language:

S-56A Canister/Altair - Orbit

View from above orbital plane
View from above orbital plane
View from above satellite
View from above satellite

Ground track
Ground track

The orbit data is extracted from the following two-line orbital elements,

1    82U 61004B   20303.58968857 -.00000103 +00000-0 -37194-4 0  9999
2    82 038.8588 061.7007 1174777 010.9625 351.4468 12.26056358824272
Epoch (UTC): 29 October 2020 14:09:09
Eccentricity: 0.1174777
inclination: 38.8588°
perigee height: 633 km
apogee height: 2499 km
right ascension of ascending node: 61.7007°
argument of perigee: 10.9625°
revolutions per day: 12.26056358
mean anomaly at epoch: 351.4468°
orbit number at epoch: 82427

The dashed part of the orbit path shows where the satellite is in the earth's shadow,  

DLR